CW8081 Thessaloniki GR current weather conditions

sailwx.info

Wind from 220 at 4 knots gusting 6

Air temperature 15.0° C
Dewpoint 13.2° C

Last reported at 2016-Apr-30 06:41 UTC.
Time now 2016-Apr-30 07:08 UTC

Location: N 40°34' E 022°58'.
View on Google Maps.

See reports from other nearby stations

  
Tides and Currents Weather Stations Pressure Air Temp Water Temp Dewpoint Dewpoint Depression Visibility Wind Speed Wind Dir Waves Ship Positions
date/time (UTC)wind fromknots sea level pressurealtimeterstation pressurevisibilityair tempwater tempwave heightnotes
2016-Apr-30 06:41 220 4 gusting 6 15.0
2016-Apr-30 06:31 261 1 gusting 5 14.4
2016-Apr-30 06:11 261 2 gusting 5 13.9
2016-Apr-30 05:41 014 13.9
2016-Apr-30 05:11 312 12.8
2016-Apr-30 05:01 312 12.8
2016-Apr-30 04:31 311 11.7
2016-Apr-30 04:01 307 11.1
2016-Apr-30 03:41 307 11.1
2016-Apr-30 03:31 307 11.7
2016-Apr-30 03:11 307 11.7
2016-Apr-30 03:01 306 11.7
2016-Apr-30 02:41 306 12.2
2016-Apr-30 01:41 306 12.2
2016-Apr-30 01:11 306 12.8
2016-Apr-30 01:01 306 12.8
2016-Apr-30 00:31 306 13.3
2016-Apr-30 00:11 306 13.3
2016-Apr-30 00:01 306 13.9
2016-Apr-29 22:41 306 14.4
2016-Apr-29 22:11 306 14.4
2016-Apr-29 22:01 306 14.4
2016-Apr-29 21:31 315 15.0
2016-Apr-29 21:11 319 15.0
2016-Apr-29 21:01 319 15.0
2016-Apr-29 20:01 323 3 gusting 6 14.4
2016-Apr-29 19:41 306 1 gusting 6 15.0
2016-Apr-29 19:31 308 3 gusting 7 15.0
2016-Apr-29 19:11 324 5 gusting 8 15.0
2016-Apr-29 19:01 278 3 gusting 6 15.0
2016-Apr-29 18:41 029 15.0
2016-Apr-29 18:01 029 15.6
2016-Apr-29 17:41 029 15.6
2016-Apr-29 17:31 029 1 gusting 5 15.6
2016-Apr-29 17:01 009 1 gusting 6 15.6
2016-Apr-29 16:41 013 4 gusting 6 15.6
2016-Apr-29 16:31 024 4 gusting 6 15.6
2016-Apr-29 16:01 046 5 gusting 8 15.6
2016-Apr-29 15:41 040 6 gusting 10 16.1
2016-Apr-29 15:31 033 5 gusting 7 16.1
2016-Apr-29 15:11 047 5 gusting 8 16.1
2016-Apr-29 14:41 328 2 gusting 5 16.1
2016-Apr-29 14:11 311 0 gusting 6 16.1
2016-Apr-29 14:01 302 1 gusting 6 16.1
2016-Apr-29 13:41 322 1 gusting 5 15.6
2016-Apr-29 13:11 324 1 gusting 5 15.0
2016-Apr-29 13:01 342 2 gusting 6 15.0
2016-Apr-29 12:31 354 5 gusting 7 15.0
2016-Apr-29 12:11 317 3 gusting 6 14.4
2016-Apr-29 11:31 323 4 gusting 6 14.4
2016-Apr-29 11:01 323 4 gusting 7 14.4
2016-Apr-29 10:41 325 0 gusting 5 14.4
2016-Apr-29 10:31 327 3 gusting 6 14.4
2016-Apr-29 10:01 138 14.4
2016-Apr-29 09:41 138 0 gusting 4 14.4
2016-Apr-29 09:31 138 14.4
2016-Apr-29 09:01 138 14.4
2016-Apr-29 08:31 138 13.9
2016-Apr-29 08:11 136 0 gusting 5 13.9
2016-Apr-29 07:41 133 13.9
2016-Apr-29 07:31 133 13.9
2016-Apr-29 07:11 133 13.3
2016-Apr-29 07:01 133 13.3
2016-Apr-29 06:31 133 13.3
2016-Apr-29 06:11 133 13.3
2016-Apr-29 06:01 135 13.9
2016-Apr-29 05:41 136 14.4
2016-Apr-29 05:11 136 14.4
2016-Apr-29 04:41 136 15.0
2016-Apr-29 04:31 136 15.0
2016-Apr-29 04:01 136 15.0
2016-Apr-29 03:41 136 15.0
2016-Apr-29 03:31 136 15.0
2016-Apr-29 03:01 136 15.0
2016-Apr-29 02:41 136 15.6
2016-Apr-29 02:31 136 15.6
2016-Apr-29 02:11 136 15.6
2016-Apr-29 02:01 136 15.6
2016-Apr-29 01:41 136 16.1
2016-Apr-29 01:31 136 16.1
2016-Apr-29 01:11 136 16.1
2016-Apr-29 01:01 136 16.1
2016-Apr-29 00:41 136 16.1
2016-Apr-29 00:31 135 16.1
2016-Apr-29 00:11 135 16.1
2016-Apr-29 00:01 135 16.1
2016-Apr-28 23:41 136 2 gusting 4 16.1
2016-Apr-28 23:31 137 1 gusting 2 16.1
2016-Apr-28 22:41 137 15.6
2016-Apr-28 22:11 137 16.1
2016-Apr-28 22:01 137 16.1
2016-Apr-28 21:41 137 15.6
2016-Apr-28 21:31 138 15.6
2016-Apr-28 21:01 138 16.1
2016-Apr-28 20:31 138 16.1
2016-Apr-28 20:11 137 16.1
2016-Apr-28 20:01 138 16.1
2016-Apr-28 19:01 137 16.1
2016-Apr-28 18:11 150 16.7
2016-Apr-28 18:01 150 0 gusting 6 16.7
2016-Apr-28 17:31 184 1 gusting 6 16.7
2016-Apr-28 17:11 189 1 gusting 7 17.2
2016-Apr-28 17:01 178 4 gusting 10 17.2
2016-Apr-28 16:31 205 6 gusting 10 17.8
2016-Apr-28 16:11 190 4 gusting 6 18.3
2016-Apr-28 16:01 204 5 gusting 11 18.3
2016-Apr-28 15:41 201 8 gusting 12 19.4
2016-Apr-28 15:31 212 6 gusting 10 20.0
2016-Apr-28 15:11 215 5 gusting 8 20.6
2016-Apr-28 14:01 203 6 gusting 12 21.7
2016-Apr-28 13:41 204 6 gusting 13 22.2
2016-Apr-28 13:11 204 8 gusting 13 22.2
2016-Apr-28 13:01 210 10 gusting 15 22.2
2016-Apr-28 12:41 245 6 gusting 12 22.2
2016-Apr-28 12:11 223 5 gusting 8 21.1
2016-Apr-28 12:01 245 5 gusting 10 21.1
2016-Apr-28 11:41 254 6 gusting 10 21.7
2016-Apr-28 11:01 260 4 gusting 6 21.7
2016-Apr-28 10:41 227 4 gusting 6 21.7
2016-Apr-28 10:01 227 4 gusting 7 20.0
2016-Apr-28 09:41 227 4 gusting 6 20.0
2016-Apr-28 09:31 227 5 gusting 7 20.0
2016-Apr-28 09:11 238 4 gusting 6 18.9
2016-Apr-28 09:01 258 4 gusting 6 18.9
2016-Apr-28 08:41 208 3 gusting 6 18.3
2016-Apr-28 08:11 205 2 gusting 6 16.7
2016-Apr-28 08:01 205 4 gusting 7 16.1
2016-Apr-28 07:41 200 3 gusting 6 16.1
2016-Apr-28 07:31 200 2 gusting 6 16.1
2016-Apr-28 07:11 198 1 gusting 5 15.6
2016-Apr-28 07:01 198 2 gusting 6 15.0